sat.trackr.live / text

‹ back to catalog

XRISM

NORAD 57800 · 2023-137A

PAYLOAD ACTIVE UNKNOWN

§ Identity

Operator
Country
JPN
Launch date
2023-09-06
Launch site
TANSC
Launch vehicle
Mass (kg)
RCS (m²)

External: N2YO · Heavens-Above · Gunter

§ Orbital elements

Epoch: 2026-09-21T06:09:37.788768Z

Period
95.17 min
Inclination
31.0013°
Eccentricity
0.0007479
Mean motion
15.13154937 rev/d
Perigee alt
521.4 km
Apogee alt
531.7 km
Semi-major
6,904.7 km
B*
1.7816e-4
RAAN
96.9579°
Arg perigee
215.6096°
Mean anomaly
144.4045°
Rev number
16,742

§ Raw data

XRISM1 57800U 23137A   26264.25668737  .00003338  00000+0  17816-3 0  99922 57800  31.0013  96.9579 0007479 215.6096 144.4045 15.13154937167422

JSON: /api/v1/satellites/57800 · /tle

For live sub-satellite position, see the globe view (requires WebGL).

§ Visibility from observer

Set your observer location to see the next 7 days of passes ≥ 10°. The values pass through the URL so the page stays shareable.

No JS? Fill the form by hand. The geolocation button needs JavaScript.

§ Radio — SatNOGS DB

ModeDescriptionDownlinkUplink
FM Mode S 2.212 GHz

1 transmitter · refreshed weekly from db.satnogs.org